[[{"header":{"parameterUnit":"m.s-1","parameterCategory":1,"la1":30.2991,"la2":30.254,"lo1":-89.0895,"lo2":-89.0444,"dy":0.0017,"dx":0.0017,"nx":28,"ny":28,"refTime":"2025-03-03T09:00:00:Z","depth":0,"parameterNumber":2,"parameterNumberName":"U-component_of_WINDS"},"data":[0,0,0,0,0,0,0,0,0,0,0,0,0,0,0,0,0,0,0,0,0,0,0,0,0,0,0,0,0,0,0,0,0,0,0,0,0,0,0,0,0,0,0,0,0,0,0,0,0,0,0,0,0,0,0,0,0,0,-6.0852,-6.0853,0,-6.1013,-6.1015,-6.1017,-6.1018,-6.1015,-6.1013,-6.1011,-6.1174,-6.118,-6.1186,0,0,0,0,0,0,0,0,0,0,0,0,0,-6.0541,-6.0547,-6.0852,-6.0854,-6.0856,-6.1013,-6.1015,-6.1017,-6.1018,-6.1015,-6.1013,-6.101,-6.1172,-6.1179,-6.1187,0,0,0,0,0,0,0,0,0,0,0,0,0,-6.0687,-6.0549,-6.0851,-6.0875,-6.0879,-6.1013,-6.1015,-6.1018,-6.1018,-6.1015,-6.1012,-6.1009,-6.117,-6.1179,-6.1188,-6.1308,0,0,-6.1217,-6.1221,0,0,0,0,0,0,0,0,-6.0678,-6.0698,-6.0869,-6.0874,-6.0878,-6.0992,-6.0966,-6.1115,-6.1019,-6.0965,-6.1011,-6.1008,-6.1116,-6.113,-6.1167,-6.1316,-6.1323,-6.1218,-6.1223,-6.1227,-6.123,0,0,0,0,0,0,0,-6.0668,-6.0691,-6.0915,-6.0872,-6.0877,-6.0877,-6.0894,-6.0994,-6.1056,-6.097,-6.097,-6.0989,-6.1118,-6.1158,-6.117,-6.1325,-6.1217,-6.1226,-6.1231,-6.1235,-6.1581,-6.1584,0,0,0,0,0,0,-6.0654,-6.0683,-6.091,-6.092,-6.0769,-6.0885,-6.0904,-6.0959,-6.1055,-6.1067,-6.0992,-6.0989,-6.1143,-6.1159,-6.1176,-6.1322,-6.1227,-6.1236,-6.1241,-6.1577,-6.1581,-6.1585,0,0,0,0,0,0,-6.0647,-6.0674,-6.0904,-6.0802,-6.0831,-6.0894,-6.0955,-6.0963,-6.1003,-6.1072,-6.1083,-6.1021,-6.1141,-6.1163,-6.1275,-6.1328,-6.124,-6.1249,-6.1573,-6.1578,-6.1583,-6.1615,0,0,0,0,0,0,-6.0638,-6.0672,-6.0718,-6.0803,-6.0836,-6.1001,-6.0958,-6.0969,-6.102,-6.1017,-6.1102,-6.1113,-6.114,-6.1261,-6.1285,-6.1339,-6.1256,-6.1568,-6.1575,-6.1582,-6.161,-6.1621,-6.1631,0,0,0,0,0,-6.0627,-6.0721,-6.0721,-6.0748,-6.0896,-6.1004,-6.1023,-6.1053,-6.1024,-6.1071,-6.1115,-6.1111,-6.1319,-6.1273,-6.1299,-6.1357,-6.1565,-6.1573,-6.1581,-6.1605,-6.1619,-6.163,0,0,0,0,0,0,-6.064,-6.0732,-6.0733,-6.0857,-6.0923,-6.1004,-6.1064,-6.1067,-6.1142,-6.1136,-6.117,-6.1189,-6.1301,-6.1341,-6.1288,-6.1478,-6.1438,-6.1452,-6.1447,-6.1461,-6.1471,-6.1458,-6.1264,0,0,0,0,0,-6.0657,-6.0738,-6.0814,-6.0916,-6.0949,-6.1001,-6.1049,-6.1067,-6.1136,-6.1163,-6.1216,-6.1282,-6.1362,-6.1414,-6.1492,-6.1617,-6.1634,-6.1669,-6.168,-6.1688,-6.1698,-6.1766,-6.1782,-6.1611,-6.1611,-6.1611,0,0,-6.0693,-6.0754,-6.0802,-6.092,-6.0973,-6.1054,-6.1024,-6.1112,-6.1172,-6.1176,-6.1285,-6.1327,-6.1403,-6.1521,-6.1576,-6.1558,-6.175,-6.1698,-6.1704,-6.171,-6.1776,-6.1792,-6.1806,-6.1617,-6.1616,-6.1615,0,0,-6.08,-6.0855,-6.0945,-6.0999,-6.108,-6.1115,-6.1136,-6.1218,-6.1245,-6.1356,-6.136,-6.1433,-6.1571,-6.1625,-6.167,-6.1799,-6.1797,-6.1824,-6.1877,-6.1942,-6.1956,-6.1968,-6.2012,-6.2027,-6.1835,-6.1835,-6.1835,0,-6.0834,-6.0958,-6.0991,-6.1079,-6.113,-6.1139,-6.123,-6.1281,-6.1383,-6.1417,-6.1396,-6.1569,-6.1622,-6.1752,-6.1784,-6.1821,-6.1846,-6.1813,-6.1951,-6.1964,-6.1975,-6.2018,-6.2034,-6.1837,-6.1837,-6.1837,-6.1837,0,-6.0995,-6.1081,-6.1144,-6.1243,-6.1302,-6.1391,-6.1436,-6.1491,-6.1505,-6.1541,-6.1653,-6.1717,-6.1807,-6.184,-6.1853,-6.1973,-6.1959,-6.1944,-6.1904,-6.1994,-6.2034,-6.205,-6.1841,-6.184,-6.1839,-6.1839,0,0,-6.1112,-6.1229,-6.1251,-6.1296,-6.1387,-6.1453,-6.1543,-6.1632,-6.1678,-6.1749,-6.1823,-6.1941,-6.1928,-6.198,-6.2,-6.2058,-6.2154,-6.2037,-6.2039,-6.2054,-6.2287,-6.2295,-6.2313,-6.2155,-6.2158,-6.216,-6.228,0,-6.1227,-6.1386,-6.1419,-6.1556,-6.1635,-6.1646,-6.1723,-6.1787,-6.1824,-6.1896,-6.1936,-6.2018,-6.1997,-6.2028,-6.2086,-6.213,-6.2201,-6.2122,-6.2222,-6.2225,-6.22,-6.2335,-6.2344,-6.2453,-6.2296,-6.2299,-6.2301,0,-6.1382,-6.1456,-6.1602,-6.1682,-6.1716,-6.1785,-6.1869,-6.1939,-6.2011,-6.2034,-6.2093,-6.2107,-6.2199,-6.2157,-6.2284,-6.223,-6.2274,-6.2302,-6.2307,-6.2315,-6.2266,-6.2344,-6.2489,-6.2504,-6.2326,-6.2324,-6.2322,0,-6.1449,-6.1587,-6.1691,-6.173,-6.1826,-6.1874,-6.1916,-6.1986,-6.2038,-6.2112,-6.2145,-6.2229,-6.2274,-6.2338,-6.2374,-6.2341,-6.2498,-6.2459,-6.2518,-6.2517,-6.2548,-6.2545,-6.2699,-6.2581,-6.258,-6.258,-6.258,0,-6.1573,-6.166,-6.1723,-6.1787,-6.1885,-6.1922,-6.2019,-6.2061,-6.2123,-6.2194,-6.2209,-6.2276,-6.2321,-6.2394,-6.2423,-6.2523,-6.2544,-6.2564,-6.257,-6.2561,-6.2558,-6.2587,-6.258,-6.2584,-6.2583,-6.2583,-6.2582,0,-6.1664,-6.1709,-6.1823,-6.1906,-6.1929,-6.1997,-6.2068,-6.213,-6.2168,-6.2258,-6.2281,-6.234,-6.2427,-6.247,-6.2578,-6.2598,-6.271,-6.2713,-6.2685,-6.2687,-6.2742,-6.2735,-6.2919,-6.2944,-6.2811,-6.2812,-6.2813,0,-6.1738,-6.1806,-6.1896,-6.1945,-6.1988,-6.2068,-6.2121,-6.216,-6.2214,-6.2302,-6.2354,-6.2441,-6.2513,-6.2652,-6.2703,-6.2786,-6.2789,-6.2848,-6.2801,-6.279,-6.2787,-6.2782,-6.2788,-6.2855,-6.2856,-6.2857,-6.2858,0,-6.1864,-6.1883,-6.1959,-6.2043,-6.2106,-6.2174,-6.2241,-6.228,-6.233,-6.239,-6.248,-6.2536,-6.2646,-6.2732,-6.2819,-6.2862,-6.2868,-6.2873,-6.289,-6.288,-6.2861,-6.287,-6.2705,-6.2868,-6.2867,-6.2866,-6.2865,-6.2865,-6.1948,-6.2008,-6.208,-6.2164,-6.2219,-6.2281,-6.2343,-6.2389,-6.2464,-6.2557,-6.2577,-6.2671,-6.2741,-6.2858,-6.2904,-6.2978,-6.2965,-6.2991,-6.2997,-6.3002,-6.3003,-6.2851,-6.2994,-6.2994,-6.2994,-6.2994,-6.2994,0,-6.2072,-6.212,-6.2197,-6.229,-6.2356,-6.2358,-6.2432,-6.2486,-6.2569,-6.2635,-6.2706,-6.2808,-6.2892,-6.2951,-6.3037,-6.3084,-6.3089,-6.3105,-6.3101,-6.311,-6.3011,-6.2987,-6.31,-6.31,-6.31,-6.31,-6.31,-6.31,-6.2145,-6.2247,-6.2275,-6.2403,-6.245,-6.2543,-6.2585,-6.2642,-6.2695,-6.2808,-6.2878,-6.2917,-6.298,-6.307,-6.3147,-6.3163,-6.3192,-6.3208,-6.3222,-6.3128,-6.3117,-6.3106,-6.3083,-6.3215,-6.3215,-6.3315,-6.3316,-6.3316]},{"header":{"parameterUnit":"m.s-1","parameterCategory":1,"la1":30.2991,"la2":30.254,"lo1":-89.0895,"lo2":-89.0444,"dy":0.0017,"dx":0.0017,"nx":28,"ny":28,"refTime":"2025-03-03T09:00:00:Z","depth":0,"parameterNumber":3,"parameterNumberName":"V-component_of_WINDS"},"data":[0,0,0,0,0,0,0,0,0,0,0,0,0,0,0,0,0,0,0,0,0,0,0,0,0,0,0,0,0,0,0,0,0,0,0,0,0,0,0,0,0,0,0,0,0,0,0,0,0,0,0,0,0,0,0,0,0,0,4.514,4.5142,0,4.5271,4.5272,4.5274,4.5288,4.5287,4.5285,4.5284,4.5416,4.542,4.5425,0,0,0,0,0,0,0,0,0,0,0,0,0,4.4902,4.4906,4.514,4.5142,4.5143,4.5271,4.5272,4.5274,4.5288,4.5287,4.5285,4.5284,4.5414,4.542,4.5425,0,0,0,0,0,0,0,0,0,0,0,0,0,4.5016,4.4908,4.514,4.5166,4.5169,4.527,4.5273,4.5275,4.5289,4.5287,4.5285,4.5283,4.5412,4.5419,4.5426,4.5509,0,0,4.5448,4.5451,0,0,0,0,0,0,0,0,4.501,4.5025,4.516,4.5164,4.5168,4.5261,4.5237,4.5353,4.5289,4.5243,4.5284,4.5282,4.5366,4.5376,4.5405,4.5515,4.5521,4.5448,4.5453,4.5456,4.5458,0,0,0,0,0,0,0,4.5002,4.5019,4.5192,4.5162,4.5167,4.5171,4.5185,4.5259,4.5314,4.5247,4.5249,4.5264,4.5367,4.5398,4.5408,4.5523,4.5448,4.5454,4.5459,4.5461,4.5709,4.5712,0,0,0,0,0,0,4.4989,4.5013,4.5188,4.5196,4.5083,4.5177,4.5192,4.5233,4.5313,4.5323,4.5265,4.5264,4.5387,4.54,4.5413,4.5517,4.5456,4.5462,4.5466,4.5707,4.571,4.5712,0,0,0,0,0,0,4.4984,4.5005,4.5182,4.5105,4.5128,4.5183,4.5229,4.5237,4.5268,4.5327,4.5337,4.5287,4.5386,4.5403,4.5486,4.5522,4.5465,4.5472,4.5704,4.5708,4.5711,4.5725,0,0,0,0,0,0,4.4977,4.5003,4.5035,4.5105,4.5132,4.5253,4.5231,4.5241,4.528,4.528,4.535,4.5359,4.5386,4.5475,4.5493,4.553,4.5477,4.5701,4.5706,4.571,4.5721,4.5728,4.5734,0,0,0,0,0,4.4968,4.5033,4.5037,4.5058,4.5173,4.5255,4.527,4.53,4.5283,4.5316,4.5354,4.5357,4.5515,4.5483,4.5503,4.5544,4.5699,4.5705,4.571,4.5718,4.5727,4.5734,0,0,0,0,0,0,4.4964,4.5042,4.5048,4.5137,4.5189,4.5258,4.53,4.5308,4.5366,4.5363,4.5397,4.5413,4.5494,4.5527,4.5491,4.5629,4.5605,4.5615,4.5605,4.5613,4.562,4.561,4.5483,0,0,0,0,0,4.4974,4.5034,4.5099,4.5171,4.5198,4.5244,4.5281,4.53,4.5356,4.5378,4.5422,4.5475,4.5537,4.5577,4.5637,4.5726,4.5742,4.5763,4.577,4.5775,4.5783,4.5834,4.5844,4.573,4.573,4.573,0,0,4.4994,4.5044,4.508,4.5172,4.5215,4.5277,4.5263,4.5329,4.5375,4.5387,4.5469,4.5503,4.5565,4.5652,4.5692,4.5682,4.5818,4.5781,4.5785,4.579,4.584,4.5851,4.5861,4.5733,4.5733,4.5732,0,0,4.5063,4.5106,4.5172,4.5216,4.5282,4.5313,4.5328,4.5396,4.542,4.5502,4.5513,4.5568,4.5673,4.5718,4.5754,4.5841,4.5846,4.5859,4.5893,4.5942,4.5951,4.5959,4.5991,4.6002,4.5867,4.5867,4.5867,0,4.5079,4.5173,4.5205,4.5271,4.5311,4.5326,4.5393,4.5434,4.5516,4.5543,4.553,4.5664,4.5707,4.5805,4.5826,4.5854,4.5874,4.5851,4.5947,4.5956,4.5964,4.5995,4.6007,4.5868,4.5868,4.5868,4.5868,0,4.5191,4.5256,4.5301,4.5382,4.5427,4.5493,4.5534,4.5576,4.5591,4.5623,4.5707,4.5759,4.583,4.5855,4.5869,4.5955,4.5947,4.594,4.5917,4.5976,4.6005,4.6017,4.587,4.5869,4.5869,4.5869,0,0,4.5261,4.5358,4.5374,4.5411,4.5485,4.5536,4.5603,4.5674,4.571,4.5766,4.5823,4.5913,4.5908,4.5949,4.5968,4.6011,4.6078,4.6,4.6002,4.6013,4.6177,4.6183,4.6196,4.6082,4.6084,4.6086,4.6173,0,4.5339,4.5459,4.549,4.5593,4.5654,4.5669,4.5728,4.578,4.5812,4.5868,4.5903,4.5966,4.5954,4.5979,4.6022,4.6061,4.6112,4.6055,4.6136,4.6138,4.6121,4.6211,4.6217,4.6296,4.6184,4.6186,4.6188,0,4.5446,4.5506,4.5615,4.5682,4.5709,4.5761,4.5829,4.5883,4.5942,4.5962,4.6009,4.6025,4.6095,4.6068,4.6166,4.6126,4.6161,4.6185,4.6189,4.6198,4.6167,4.6224,4.6322,4.6334,4.6206,4.6204,4.6203,0,4.5488,4.5595,4.5674,4.5705,4.5786,4.5822,4.5857,4.5915,4.5956,4.6015,4.6042,4.6108,4.6144,4.6195,4.6228,4.6205,4.6324,4.6299,4.6343,4.6342,4.6368,4.6366,4.6474,4.6389,4.6388,4.6388,4.6388,0,4.5572,4.5639,4.5694,4.5743,4.5818,4.5853,4.5926,4.5961,4.6012,4.6069,4.6085,4.6138,4.6178,4.6236,4.6262,4.634,4.6356,4.6374,4.638,4.6373,4.6371,4.6397,4.6393,4.6391,4.6391,4.639,4.6389,0,4.5632,4.5671,4.576,4.5829,4.5848,4.59,4.5959,4.6007,4.604,4.6111,4.613,4.6181,4.625,4.6288,4.6374,4.6392,4.6479,4.6482,4.6459,4.6462,4.6504,4.65,4.6633,4.6653,4.6554,4.6555,4.6555,0,4.5684,4.5735,4.581,4.585,4.5886,4.5948,4.5991,4.6026,4.607,4.6142,4.6181,4.6252,4.631,4.6419,4.6464,4.653,4.6536,4.6578,4.6546,4.6537,4.6538,4.6535,4.6541,4.6583,4.6584,4.6585,4.6586,0,4.5772,4.5789,4.585,4.5918,4.5969,4.6024,4.6078,4.6109,4.6154,4.6202,4.6273,4.6318,4.6407,4.6477,4.6547,4.6583,4.6592,4.6595,4.6609,4.6603,4.6588,4.6598,4.6476,4.6592,4.6592,4.6591,4.6591,4.659,4.583,4.5878,4.5938,4.6006,4.605,4.6101,4.6151,4.619,4.625,4.6326,4.6343,4.6418,4.6477,4.6572,4.661,4.6669,4.6661,4.6681,4.6686,4.6691,4.6693,4.6578,4.6682,4.6682,4.6682,4.6682,4.6682,0,4.5921,4.5961,4.6022,4.6099,4.6152,4.6156,4.6217,4.6261,4.6328,4.6382,4.6439,4.6522,4.659,4.664,4.6709,4.6747,4.6753,4.6764,4.6763,4.6771,4.6696,4.6678,4.6759,4.6758,4.6758,4.6758,4.6758,4.6758,4.5975,4.6055,4.608,4.6183,4.6222,4.6297,4.6331,4.6379,4.6422,4.6514,4.6571,4.6603,4.6656,4.673,4.6792,4.6805,4.6831,4.6841,4.6855,4.6784,4.6776,4.6768,4.6751,4.6846,4.6846,4.6925,4.6926,4.6926]}]]